This demonstration page uses our WeatherBlox Daily Observations layout. Learn more.

Left ArrowRight Arrow

39.92423, -83.80882

Hourly Observations for March 16, 2019

Temp ( °F °C ) Dew Point ( °F °C ) Humidity (%) Winds ( mph kmh ) Pressure ( in mb ) Visibility ( mi km ) Precip ( " mm )
12:56 am 00:56 Partly Cloudy 34 1.1 27 -2.8 76 76 W 16 26 30.22 1023 10 16.0934 0 0
1:56 am 01:56 Partly Cloudy 33 0.6 28 -2.2 82 82 WSW 12 19 30.21 1023 10 16.0934 0 0
2:56 am 02:56 Mostly Cloudy 33 0.6 29 -1.7 85 85 WSW 13 20 30.22 1023 10 16.0934 0 0
3:56 am 03:56 Clear 33 0.6 28 -2.2 82 82 WSW 12 19 30.22 1023 10 16.0934 0 0
4:56 am 04:56 Clear 32 0 27 -2.8 82 82 WSW 13 20 30.22 1023 10 16.0934 0 0
5:56 am 05:56 Clear 31 -0.6 27 -2.8 85 85 W 12 19 30.24 1024 10 16.0934 0 0
6:56 am 06:56 Clear 30 -1.1 26 -3.3 85 85 W 10 17 30.26 1025 10 16.0934 0 0
7:56 am 07:56 Sunny 30 -1.1 26 -3.3 85 85 W 9 15 30.27 1025 10 16.0934 0 0
8:56 am 08:56 Mostly Sunny 32 0 27 -2.8 82 82 W 12 19 30.29 1026 10 16.0934 0 0
9:56 am 09:56 Mostly Sunny 33 0.6 26 -3.3 75 75 WNW 15 24 30.31 1026 10 16.0934 0 0
10:56 am 10:56 Mostly Cloudy 35 1.7 27 -2.8 72 72 WNW 12 19 30.33 1027 10 16.0934 0 0
11:53 am 11:53 Mostly Cloudy 37 3 27 -3 65 65 WNW 13 20 30.35 1028 10 16.0934 0 0
11:56 am 11:56 Mostly Cloudy 36 2.2 25 -3.9 64 64 WNW 10 17 30.34 1028 10 16.0934 0 0
12:56 pm 12:56 Cloudy 38 3.3 25 -3.9 60 60 W 15 24 30.34 1027 10 16.0934 0 0
1:56 pm 13:56 Mostly Cloudy 38 3.3 24 -4.4 57 57 WNW 14 22 30.34 1027 10 16.0934 0 0
2:56 pm 14:56 Mostly Cloudy 40 4.4 26 -3.3 58 58 WNW 12 19 30.32 1027 10 16.0934 0 0
3:56 pm 15:56 Sunny 40 4.4 24 -4.4 53 53 WNW 16 26 30.3 1026 10 16.0934 0 0
4:56 pm 16:56 Mostly Cloudy 41 5 24 -4.4 51 51 NW 15 24 30.31 1026 10 16.0934 0 0
5:56 pm 17:56 Mostly Cloudy 40 4.4 24 -4.4 53 53 NW 14 22 30.31 1026 10 16.0934 0 0
6:56 pm 18:56 Mostly Sunny 39 3.9 23 -5 53 53 WNW 14 22 30.31 1027 10 16.0934 0 0
7:56 pm 19:56 Mostly Cloudy 36 2.2 24 -4.4 62 62 NW 7 11 30.32 1027 10 16.0934 0 0
8:56 pm 20:56 Mostly Clear 33 0.6 23 -5 66 66 WNW 6 9 30.33 1027 10 16.0934 0 0
9:56 pm 21:56 Clear 32 0 23 -5 69 69 WNW 5 7 30.33 1027 10 16.0934 0 0
10:56 pm 22:56 Clear 31 -0.6 25 -3.9 79 79 WNW 6 9 30.34 1027 10 16.0934 0 0
11:56 pm 23:56 Clear 30 -1.1 24 -4.4 79 79 WNW 5 7 30.33 1027 10 16.0934 0 0

Powered by AerisWeather